Time,TemperatureF,DewpointF,PressureIn,WindDirection,WindDirectionDegrees,WindSpeedMPH,WindSpeedGustMPH,Humidity,HourlyPrecipIn,Conditions,Clouds,dailyrainin,SoftwareType,DateUTC
2013-04-19 00:01:00,34.0,16.0,-100.00,NW,325,5.0,7.0,47,0.00,,,-99.99,,2013-04-19 06:01:00,
2013-04-19 00:11:00,33.0,16.0,-100.00,NW,305,5.0,6.0,49,0.00,,,-99.99,,2013-04-19 06:11:00,
2013-04-19 00:22:00,33.0,17.0,-100.00,NW,315,4.0,6.0,50,0.00,,,-99.99,,2013-04-19 06:22:00,
2013-04-19 00:32:00,33.0,17.0,-100.00,SW,225,4.0,6.0,52,0.00,,,-99.99,,2013-04-19 06:32:00,
2013-04-19 00:42:00,33.0,17.0,-100.00,West,260,4.0,6.0,52,0.00,,,-99.99,,2013-04-19 06:42:00,
2013-04-19 00:52:00,33.0,17.0,-100.00,SW,235,6.0,7.0,53,0.00,,,-99.99,,2013-04-19 06:52:00,
2013-04-19 01:01:00,32.0,17.0,-100.00,North,5,4.0,7.0,53,0.00,,,-99.99,,2013-04-19 07:01:00,
2013-04-19 01:12:00,32.0,17.0,-100.00,North,0,4.0,7.0,52,0.00,,,-99.99,,2013-04-19 07:12:00,
2013-04-19 01:21:00,32.0,17.0,-100.00,West,260,5.0,7.0,53,0.00,,,-99.99,,2013-04-19 07:21:00,
2013-04-19 01:31:00,32.0,17.0,-100.00,SW,225,6.0,9.0,51,0.00,,,-99.99,,2013-04-19 07:31:00,
2013-04-19 01:42:00,32.0,16.0,-100.00,North,0,4.0,7.0,51,0.00,,,-99.99,,2013-04-19 07:42:00,
2013-04-19 01:52:00,32.0,16.0,-100.00,North,0,4.0,7.0,51,0.00,,,-99.99,,2013-04-19 07:52:00,
2013-04-19 02:02:00,32.0,16.0,-100.00,North,5,5.0,8.0,51,0.00,,,-99.99,,2013-04-19 08:02:00,
2013-04-19 02:12:00,32.0,16.0,-100.00,North,0,5.0,8.0,51,0.00,,,-99.99,,2013-04-19 08:12:00,
2013-04-19 02:21:00,31.0,16.0,-100.00,North,0,6.0,9.0,52,0.00,,,-99.99,,2013-04-19 08:21:00,
2013-04-19 02:32:00,31.0,17.0,-100.00,North,0,5.0,11.0,53,0.00,,,-99.99,,2013-04-19 08:32:00,
2013-04-19 02:42:00,31.0,17.0,-100.00,North,0,6.0,9.0,53,0.00,,,-99.99,,2013-04-19 08:42:00,
2013-04-19 02:52:00,31.0,17.0,-100.00,North,0,4.0,9.0,54,0.00,,,-99.99,,2013-04-19 08:52:00,
2013-04-19 03:01:00,31.0,16.0,-100.00,SW,220,5.0,7.0,54,0.00,,,-99.99,,2013-04-19 09:01:00,
2013-04-19 03:11:00,31.0,16.0,-100.00,North,0,5.0,8.0,55,0.00,,,-99.99,,2013-04-19 09:11:00,
2013-04-19 03:21:00,30.0,17.0,-100.00,North,0,6.0,10.0,55,0.00,,,-99.99,,2013-04-19 09:21:00,
2013-04-19 03:32:00,30.0,17.0,-100.00,North,0,6.0,9.0,56,0.00,,,-99.99,,2013-04-19 09:32:00,
2013-04-19 03:42:00,30.0,17.0,-100.00,North,10,4.0,8.0,56,0.00,,,-99.99,,2013-04-19 09:42:00,
2013-04-19 03:52:00,30.0,17.0,-100.00,NNE,20,6.0,9.0,56,0.00,,,-99.99,,2013-04-19 09:52:00,
2013-04-19 04:02:00,30.0,17.0,-100.00,North,0,4.0,9.0,56,0.00,,,-99.99,,2013-04-19 10:02:00,
2013-04-19 04:13:00,30.0,17.0,-100.00,North,0,6.0,11.0,56,0.00,,,-99.99,,2013-04-19 10:13:00,
2013-04-19 04:23:00,30.0,17.0,-100.00,North,5,6.0,9.0,56,0.00,,,-99.99,,2013-04-19 10:23:00,
2013-04-19 04:33:00,30.0,16.0,-100.00,North,0,6.0,11.0,56,0.00,,,-99.99,,2013-04-19 10:33:00,
2013-04-19 04:42:00,30.0,16.0,-100.00,North,0,7.0,11.0,56,0.00,,,-99.99,,2013-04-19 10:42:00,
2013-04-19 04:52:00,30.0,16.0,-100.00,North,5,7.0,13.0,56,0.00,,,-99.99,,2013-04-19 10:52:00,
2013-04-19 05:02:00,29.0,16.0,-100.00,North,5,7.0,12.0,56,0.00,,,-99.99,,2013-04-19 11:02:00,
2013-04-19 05:11:00,29.0,16.0,-100.00,North,0,7.0,12.0,57,0.00,,,-99.99,,2013-04-19 11:11:00,
2013-04-19 05:21:00,29.0,16.0,-100.00,North,0,7.0,12.0,57,0.00,,,-99.99,,2013-04-19 11:21:00,
2013-04-19 05:32:00,29.0,16.0,-100.00,North,0,6.0,13.0,58,0.00,,,-99.99,,2013-04-19 11:32:00,
2013-04-19 05:42:00,29.0,16.0,-100.00,North,0,8.0,11.0,58,0.00,,,-99.99,,2013-04-19 11:42:00,
2013-04-19 05:52:00,29.0,16.0,-100.00,North,5,7.0,12.0,58,0.00,,,-99.99,,2013-04-19 11:52:00,
2013-04-19 06:02:00,29.0,16.0,-100.00,North,0,6.0,12.0,58,0.00,,,-99.99,,2013-04-19 12:02:00,
2013-04-19 06:12:00,29.0,16.0,-100.00,North,0,6.0,11.0,58,0.00,,,-99.99,,2013-04-19 12:12:00,
2013-04-19 06:22:00,29.0,16.0,-100.00,North,5,5.0,9.0,58,0.00,,,-99.99,,2013-04-19 12:22:00,
2013-04-19 06:32:00,29.0,16.0,-100.00,North,0,6.0,11.0,58,0.00,,,-99.99,,2013-04-19 12:32:00,
2013-04-19 06:42:00,29.0,17.0,-100.00,WSW,240,8.0,11.0,58,0.00,,,-99.99,,2013-04-19 12:42:00,
2013-04-19 06:52:00,29.0,16.0,-100.00,North,10,9.0,14.0,58,0.00,,,-99.99,,2013-04-19 12:52:00,
2013-04-19 07:01:00,29.0,16.0,-100.00,North,0,7.0,14.0,58,0.00,,,-99.99,,2013-04-19 13:01:00,
2013-04-19 07:11:00,29.0,16.0,-100.00,North,0,8.0,12.0,58,0.00,,,-99.99,,2013-04-19 13:11:00,
2013-04-19 07:21:00,29.0,16.0,-100.00,North,5,8.0,14.0,58,0.00,,,-99.99,,2013-04-19 13:21:00,
2013-04-19 07:32:00,29.0,17.0,-100.00,North,0,8.0,14.0,59,0.00,,,-99.99,,2013-04-19 13:32:00,
2013-04-19 07:42:00,29.0,16.0,-100.00,SW,230,7.0,14.0,59,0.00,,,-99.99,,2013-04-19 13:42:00,
2013-04-19 07:52:00,29.0,17.0,-100.00,SW,230,9.0,13.0,59,0.00,,,-99.99,,2013-04-19 13:52:00,
2013-04-19 08:01:00,29.0,17.0,-100.00,SW,225,7.0,12.0,60,0.00,,,-99.99,,2013-04-19 14:01:00,
2013-04-19 08:11:00,30.0,18.0,-100.00,SW,230,7.0,12.0,59,0.00,,,-99.99,,2013-04-19 14:11:00,
2013-04-19 08:21:00,30.0,18.0,-100.00,SW,230,7.0,12.0,58,0.00,,,-99.99,,2013-04-19 14:21:00,
2013-04-19 08:31:00,31.0,18.0,-100.00,North,0,7.0,12.0,58,0.00,,,-99.99,,2013-04-19 14:31:00,
2013-04-19 08:42:00,32.0,18.0,-100.00,SW,235,9.0,12.0,57,0.00,,,-99.99,,2013-04-19 14:42:00,
2013-04-19 08:52:00,32.0,18.0,-100.00,WSW,245,11.0,16.0,55,0.00,,,-99.99,,2013-04-19 14:52:00,
2013-04-19 09:01:00,33.0,18.0,-100.00,North,10,9.0,15.0,54,0.00,,,-99.99,,2013-04-19 15:01:00,
2013-04-19 09:11:00,33.0,18.0,-100.00,North,0,9.0,14.0,53,0.00,,,-99.99,,2013-04-19 15:11:00,
2013-04-19 09:21:00,34.0,18.0,-100.00,North,0,7.0,14.0,51,0.00,,,-99.99,,2013-04-19 15:21:00,
2013-04-19 09:33:00,34.0,18.0,-100.00,North,5,7.0,13.0,50,0.00,,,-99.99,,2013-04-19 15:33:00,
2013-04-19 09:43:00,35.0,19.0,-100.00,North,5,7.0,10.0,50,0.00,,,-99.99,,2013-04-19 15:43:00,
2013-04-19 09:52:00,36.0,18.0,-100.00,North,5,7.0,11.0,47,0.00,,,-99.99,,2013-04-19 15:52:00,
2013-04-19 10:03:00,37.0,18.0,-100.00,North,5,6.0,12.0,46,0.00,,,-99.99,,2013-04-19 16:03:00,
2013-04-19 10:12:00,38.0,19.0,-100.00,North,0,6.0,12.0,45,0.00,,,-99.99,,2013-04-19 16:12:00,
2013-04-19 10:23:00,38.0,18.0,-100.00,North,0,6.0,12.0,44,0.00,,,-99.99,,2013-04-19 16:23:00,
2013-04-19 10:32:00,39.0,19.0,-100.00,North,355,6.0,12.0,43,0.00,,,-99.99,,2013-04-19 16:32:00,
2013-04-19 10:42:00,39.0,19.0,-100.00,NNE,15,6.0,12.0,42,0.00,,,-99.99,,2013-04-19 16:42:00,
2013-04-19 10:52:00,40.0,19.0,-100.00,North,10,7.0,10.0,42,0.00,,,-99.99,,2013-04-19 16:52:00,
2013-04-19 11:02:00,41.0,19.0,-100.00,North,0,6.0,10.0,40,0.00,,,-99.99,,2013-04-19 17:02:00,
2013-04-19 11:12:00,42.0,19.0,-100.00,North,10,6.0,11.0,39,0.00,,,-99.99,,2013-04-19 17:12:00,
2013-04-19 11:21:00,43.0,19.0,-100.00,North,0,6.0,10.0,38,0.00,,,-99.99,,2013-04-19 17:21:00,
2013-04-19 11:32:00,44.0,19.0,-100.00,North,0,6.0,10.0,37,0.00,,,-99.99,,2013-04-19 17:32:00,
2013-04-19 11:42:00,44.0,19.0,-100.00,NNE,15,5.0,9.0,36,0.00,,,-99.99,,2013-04-19 17:42:00,
2013-04-19 11:52:00,46.0,20.0,-100.00,NW,305,4.0,9.0,35,0.00,,,-99.99,,2013-04-19 17:52:00,
2013-04-19 12:01:00,47.0,21.0,-100.00,SW,215,1.0,7.0,34,0.00,,,-99.99,,2013-04-19 18:01:00,
2013-04-19 12:13:00,48.0,20.0,-100.00,WNW,290,4.0,7.0,33,0.00,,,-99.99,,2013-04-19 18:13:00,
2013-04-19 12:22:00,49.0,21.0,-100.00,NW,305,3.0,7.0,33,0.00,,,-99.99,,2013-04-19 18:22:00,
2013-04-19 12:32:00,50.0,21.0,-100.00,NW,310,2.0,6.0,32,0.00,,,-99.99,,2013-04-19 18:32:00,
2013-04-19 12:42:00,50.0,20.0,-100.00,NW,320,0.0,4.0,30,0.00,,,-99.99,,2013-04-19 18:42:00,
2013-04-19 12:52:00,53.0,21.0,-100.00,West,265,0.0,4.0,29,0.00,,,-99.99,,2013-04-19 18:52:00,
2013-04-19 13:01:00,52.0,20.0,-100.00,South,170,6.0,9.0,28,0.00,,,-99.99,,2013-04-19 19:01:00,
2013-04-19 13:11:00,51.0,19.0,-100.00,SE,135,6.0,9.0,28,0.00,,,-99.99,,2013-04-19 19:11:00,
2013-04-19 13:21:00,52.0,19.0,-100.00,SSE,155,4.0,7.0,26,0.00,,,-99.99,,2013-04-19 19:21:00,
2013-04-19 13:32:00,53.0,20.0,-100.00,South,170,5.0,10.0,26,0.00,,,-99.99,,2013-04-19 19:32:00,
2013-04-19 13:41:00,52.0,19.0,-100.00,NE,40,2.0,11.0,26,0.00,,,-99.99,,2013-04-19 19:41:00,
2013-04-19 13:52:00,54.0,20.0,-100.00,SSE,165,4.0,11.0,26,0.00,,,-99.99,,2013-04-19 19:52:00,
2013-04-19 14:01:00,53.0,20.0,-100.00,South,170,4.0,10.0,26,0.00,,,-99.99,,2013-04-19 20:01:00,
2013-04-19 14:11:00,54.0,20.0,-100.00,NW,320,4.0,7.0,26,0.00,,,-99.99,,2013-04-19 20:11:00,
2013-04-19 14:22:00,54.0,20.0,-100.00,SE,140,3.0,7.0,26,0.00,,,-99.99,,2013-04-19 20:22:00,
2013-04-19 14:32:00,54.0,20.0,-100.00,South,185,5.0,12.0,26,0.00,,,-99.99,,2013-04-19 20:32:00,
2013-04-19 14:41:00,54.0,20.0,-100.00,NNE,25,2.0,7.0,26,0.00,,,-99.99,,2013-04-19 20:41:00,
2013-04-19 14:52:00,55.0,21.0,-100.00,SW,235,1.0,9.0,25,0.00,,,-99.99,,2013-04-19 20:52:00,
2013-04-19 15:01:00,55.0,20.0,-100.00,South,180,3.0,7.0,25,0.00,,,-99.99,,2013-04-19 21:01:00,
2013-04-19 15:11:00,54.0,19.0,-100.00,SSE,150,6.0,7.0,25,0.00,,,-99.99,,2013-04-19 21:11:00,
2013-04-19 15:21:00,55.0,20.0,-100.00,SSW,195,2.0,9.0,25,0.00,,,-99.99,,2013-04-19 21:21:00,
2013-04-19 15:32:00,54.0,20.0,-100.00,SE,145,6.0,10.0,25,0.00,,,-99.99,,2013-04-19 21:32:00,
2013-04-19 15:42:00,54.0,19.0,-100.00,SE,140,6.0,11.0,25,0.00,,,-99.99,,2013-04-19 21:42:00,
2013-04-19 15:52:00,54.0,20.0,-100.00,SE,130,6.0,9.0,26,0.00,,,-99.99,,2013-04-19 21:52:00,
2013-04-19 16:02:00,54.0,20.0,-100.00,SSE,160,7.0,9.0,26,0.00,,,-99.99,,2013-04-19 22:02:00,
2013-04-19 16:12:00,54.0,20.0,-100.00,ESE,120,7.0,11.0,26,0.00,,,-99.99,,2013-04-19 22:12:00,
2013-04-19 16:22:00,54.0,20.0,-100.00,South,170,6.0,7.0,26,0.00,,,-99.99,,2013-04-19 22:22:00,
2013-04-19 16:33:00,53.0,20.0,-100.00,South,180,5.0,9.0,26,0.00,,,-99.99,,2013-04-19 22:33:00,
2013-04-19 16:42:00,53.0,19.0,-100.00,SSE,160,3.0,7.0,26,0.00,,,-99.99,,2013-04-19 22:42:00,
2013-04-19 16:52:00,53.0,20.0,-100.00,SE,135,3.0,7.0,26,0.00,,,-99.99,,2013-04-19 22:52:00,
2013-04-19 17:02:00,53.0,19.0,-100.00,SSE,165,2.0,7.0,26,0.00,,,-99.99,,2013-04-19 23:02:00,
2013-04-19 17:11:00,53.0,19.0,-100.00,SSE,150,3.0,7.0,26,0.00,,,-99.99,,2013-04-19 23:11:00,
2013-04-19 17:22:00,54.0,20.0,-100.00,WNW,300,1.0,5.0,26,0.00,,,-99.99,,2013-04-19 23:22:00,
2013-04-19 17:32:00,54.0,20.0,-100.00,NE,40,1.0,4.0,26,0.00,,,-99.99,,2013-04-19 23:32:00,
2013-04-19 17:42:00,54.0,20.0,-100.00,NW,310,2.0,4.0,26,0.00,,,-99.99,,2013-04-19 23:42:00,
2013-04-19 17:52:00,55.0,21.0,-100.00,WNW,295,0.0,2.0,25,0.00,,,-99.99,,2013-04-19 23:52:00,
2013-04-19 18:01:00,56.0,21.0,-100.00,WNW,295,1.0,2.0,25,0.00,,,-99.99,,2013-04-20 00:01:00,
2013-04-19 18:11:00,56.0,21.0,-100.00,WNW,300,3.0,5.0,25,0.00,,,-99.99,,2013-04-20 00:11:00,
2013-04-19 18:21:00,57.0,22.0,-100.00,West,280,2.0,4.0,25,0.00,,,-99.99,,2013-04-20 00:21:00,
2013-04-19 18:31:00,55.0,20.0,-100.00,East,80,2.0,4.0,25,0.00,,,-99.99,,2013-04-20 00:31:00,
2013-04-19 18:41:00,55.0,20.0,-100.00,North,10,1.0,3.0,25,0.00,,,-99.99,,2013-04-20 00:41:00,
2013-04-19 18:51:00,55.0,20.0,-100.00,ESE,115,1.0,3.0,25,0.00,,,-99.99,,2013-04-20 00:51:00,
2013-04-19 19:01:00,54.0,19.0,-100.00,ENE,75,2.0,4.0,25,0.00,,,-99.99,,2013-04-20 01:01:00,
2013-04-19 19:11:00,53.0,19.0,-100.00,ENE,65,1.0,4.0,25,0.00,,,-99.99,,2013-04-20 01:11:00,
2013-04-19 19:21:00,53.0,19.0,-100.00,East,95,0.0,4.0,25,0.00,,,-99.99,,2013-04-20 01:21:00,
2013-04-19 19:32:00,53.0,19.0,-100.00,ENE,60,0.0,3.0,26,0.00,,,-99.99,,2013-04-20 01:32:00,
2013-04-19 19:42:00,53.0,19.0,-100.00,SSE,165,0.0,2.0,26,0.00,,,-99.99,,2013-04-20 01:42:00,
2013-04-19 19:52:00,53.0,20.0,-100.00,West,280,2.0,4.0,27,0.00,,,-99.99,,2013-04-20 01:52:00,
2013-04-19 20:01:00,53.0,20.0,-100.00,WNW,300,2.0,6.0,27,0.00,,,-99.99,,2013-04-20 02:01:00,
2013-04-19 20:11:00,52.0,21.0,-100.00,NE,55,0.0,3.0,28,0.00,,,-99.99,,2013-04-20 02:11:00,
2013-04-19 20:21:00,52.0,21.0,-100.00,North,0,2.0,3.0,29,0.00,,,-99.99,,2013-04-20 02:21:00,
2013-04-19 20:32:00,51.0,20.0,-100.00,East,80,1.0,3.0,29,0.00,,,-99.99,,2013-04-20 02:32:00,
2013-04-19 20:42:00,51.0,21.0,-100.00,West,280,3.0,4.0,30,0.00,,,-99.99,,2013-04-20 02:42:00,
2013-04-19 20:52:00,51.0,21.0,-100.00,North,10,1.0,4.0,30,0.00,,,-99.99,,2013-04-20 02:52:00,
2013-04-19 21:01:00,51.0,21.0,-100.00,SE,130,0.0,5.0,31,0.00,,,-99.99,,2013-04-20 03:01:00,
2013-04-19 21:11:00,50.0,21.0,-100.00,North,10,2.0,2.0,31,0.00,,,-99.99,,2013-04-20 03:11:00,
2013-04-19 21:21:00,50.0,21.0,-100.00,NNE,25,1.0,2.0,32,0.00,,,-99.99,,2013-04-20 03:21:00,
2013-04-19 21:33:00,50.0,22.0,-100.00,North,10,1.0,4.0,33,0.00,,,-99.99,,2013-04-20 03:33:00,
2013-04-19 21:43:00,49.0,22.0,-100.00,NNE,25,0.0,3.0,34,0.00,,,-99.99,,2013-04-20 03:43:00,
2013-04-19 21:52:00,49.0,23.0,-100.00,WNW,290,0.0,3.0,35,0.00,,,-99.99,,2013-04-20 03:52:00,
2013-04-19 22:03:00,49.0,23.0,-100.00,NW,325,2.0,4.0,35,0.00,,,-99.99,,2013-04-20 04:03:00,
2013-04-19 22:12:00,49.0,24.0,-100.00,NW,320,1.0,3.0,36,0.00,,,-99.99,,2013-04-20 04:12:00,
2013-04-19 22:23:00,49.0,24.0,-100.00,West,280,3.0,4.0,37,0.00,,,-99.99,,2013-04-20 04:23:00,
2013-04-19 22:32:00,49.0,24.0,-100.00,NW,325,3.0,4.0,38,0.00,,,-99.99,,2013-04-20 04:32:00,
2013-04-19 22:42:00,48.0,24.0,-100.00,North,10,3.0,4.0,38,0.00,,,-99.99,,2013-04-20 04:42:00,
2013-04-19 22:52:00,48.0,25.0,-100.00,NNW,335,4.0,6.0,39,0.00,,,-99.99,,2013-04-20 04:52:00,
2013-04-19 23:02:00,48.0,25.0,-100.00,NNW,335,2.0,6.0,40,0.00,,,-99.99,,2013-04-20 05:02:00,
2013-04-19 23:12:00,48.0,25.0,-100.00,NW,310,1.0,4.0,40,0.00,,,-99.99,,2013-04-20 05:12:00,
2013-04-19 23:21:00,47.0,25.0,-100.00,NNE,30,0.0,1.0,40,0.00,,,-99.99,,2013-04-20 05:21:00,
2013-04-19 23:32:00,47.0,25.0,-100.00,North,0,0.0,0.0,42,0.00,,,-99.99,,2013-04-20 05:32:00,
2013-04-19 23:42:00,47.0,26.0,-100.00,NNW,340,2.0,2.0,42,0.00,,,-99.99,,2013-04-20 05:42:00,
2013-04-19 23:51:00,47.0,26.0,-100.00,NW,315,3.0,4.0,43,0.00,,,-99.99,,2013-04-20 05:51:00,